• MPC Preparation (Info)

  • MPEC 2023-J143 : 2023 JD2

    The following Minor Planet Electronic Circular may be linked-to from your own Web pages, but must not otherwise be redistributed electronically.

    A form allowing access to any MPEC is at the bottom of this page.


    Read MPEC 2023-J142 Read MPEC 2023-J144


    M.P.E.C. 2023-J143                                 Issued 2023 May 14, 23:29 UT
    
         The Minor Planet Electronic Circulars contain information on unusual
             minor planets, routine data on comets and natural satellites,
             and occasional editorial announcements.  They are published
        on behalf of Division F of the International Astronomical Union by the
              Minor Planet Center, Smithsonian Astrophysical Observatory,
                              Cambridge, MA 02138, U.S.A.
    			  
                 Prepared using the Tamkin Foundation Computer Network
    
                                  MPC@CFA.HARVARD.EDU
                URL https://www.minorplanetcenter.net/    ISSN 1523-6714
    
                                    2023 JD2                                 
    
    
    Observations:
         K23J02D*1C2023 05 13.37956315 13 36.332+46 53 51.58         18.78GVEJ143703
         K23J02D 1C2023 05 13.38086315 13 36.181+46 53 16.22         19.00GVEJ143703
         K23J02D 1C2023 05 13.38216215 13 35.825+46 52 38.06         19.33GVEJ143703
         K23J02D 1C2023 05 13.38346115 13 35.324+46 52 01.96         19.00GVEJ143703
         K23J02D mC2023 05 13.45078415 13 19.747+46 20 10.07         18.82GVEJ143I52
         K23J02D mC2023 05 13.45095515 13 19.715+46 20 05.35         18.96GVEJ143I52
         K23J02D mC2023 05 13.45113915 13 19.664+46 19 59.95         18.96GVEJ143I52
         K23J02D mC2023 05 13.45130915 13 19.625+46 19 54.98         18.97GVEJ143I52
         K23J02D KB2023 05 13.87976515 12 31.774+42 50 43.76         18.5 GXEJ143B72
         K23J02D KB2023 05 13.88652915 12 30.314+42 47 19.72         18.4 GXEJ143B72
         K23J02D KB2023 05 13.89329515 12 28.865+42 43 55.68         18.4 GXEJ143B72
         K23J02D KC2023 05 13.93564 15 12 22.51 +42 22 58.5          18.3 GXEJ143Z41
         K23J02D KC2023 05 13.93793 15 12 21.99 +42 21 48.8          18.7 GXEJ143Z41
         K23J02D KC2023 05 13.94024 15 12 21.50 +42 20 38.7          18.8 GXEJ143Z41
         K23J02D KC2023 05 13.96084515 12 15.92 +42 09 59.1          18.7 GXEJ143958
         K23J02D KC2023 05 13.96817815 12 14.19 +42 06 12.9          18.6 GXEJ143958
         K23J02D KC2023 05 13.96969615 12 13.997+42 05 09.78         18.8 GXEJ143Z43
         K23J02D KC2023 05 13.97299515 12 13.17 +42 03 45.1          18.5 GXEJ143958
         K23J02D KC2023 05 13.97328115 12 13.186+42 03 19.94         19.6 GXEJ143Z43
         K23J02D mC2023 05 14.42493915 10 53.411+38 02 07.19         19.26GVEJ143I52
         K23J02D mC2023 05 14.42511015 10 53.418+38 02 01.28         19.16GVEJ143I52
         K23J02D mC2023 05 14.42528915 10 53.364+38 01 55.74               VEJ143I52
         K23J02D KC2023 05 14.84093815 10 14.25 +34 03 03.5                XEJ143C95
         K23J02D 1C2023 05 14.84756 15 10 06.55 +33 59 31.1          18.5 GVEJ143C40
         K23J02D 1C2023 05 14.84840 15 10 06.37 +33 59 01.8          18.7 GVEJ143C40
         K23J02D 1C2023 05 14.84925 15 10 06.19 +33 58 31.6          18.3 GVEJ143C40
         K23J02D 1C2023 05 14.85090 15 10 05.81 +33 57 33.1          18.5 GVEJ143C40
         K23J02D 1C2023 05 14.85176 15 10 05.63 +33 57 02.8          19.0 GVEJ143C40
         K23J02D 1C2023 05 14.85509 15 10 04.91 +33 55 04.8          18.5 GVEJ143C40
         K23J02D 1C2023 05 14.86425 15 10 02.91 +33 49 39.7          18.4 GVEJ143C40
         K23J02D KC2023 05 14.86479515 10 08.66 +33 49 16.3                VEJ143M50
         K23J02D 1C2023 05 14.86762 15 10 02.19 +33 47 40.3          18.3 GVEJ143C40
         K23J02D KC2023 05 14.86780715 10 08.92 +33 47 19.9          19.1 GXEJ143C95
         K23J02D KC2023 05 14.86898215 10 07.73 +33 46 48.8          18.3 RVEJ143M50
         K23J02D 1C2023 05 14.87095 15 10 01.47 +33 45 41.8          19.0 GVEJ143C40
         K23J02D KB2023 05 14.87304 15 10 07.86 +33 44 15.0          18.8 GXEJ143K19
         K23J02D KB2023 05 14.87476 15 10 07.51 +33 43 14.5          17.9 GXEJ143K19
         K23J02D KB2023 05 14.87645 15 10 07.17 +33 42 14.7          18.2 GXEJ143K19
         K23J02D KB2023 05 14.89582415 10 01.740+33 30 31.32         18.2 GXEJ143K74
         K23J02D KB2023 05 14.89728415 10 01.440+33 29 39.34         18.2 GXEJ143K74
         K23J02D KB2023 05 14.89874115 10 01.126+33 28 47.75         18.3 GXEJ143K74
         K23J02D KB2023 05 14.90019815 10 00.826+33 27 55.91         18.2 GXEJ143K74
         K23J02D KB2023 05 14.90165615 10 00.526+33 27 03.92         18.2 GXEJ143K74
         K23J02D KB2023 05 14.90311215 10 00.252+33 26 12.19         18.4 GXEJ143K74
         K23J02D KB2023 05 14.90456815 09 59.935+33 25 20.46         18.2 GXEJ143K74
         K23J02D KB2023 05 14.90612315 09 59.628+33 24 25.24         18.3 GXEJ143K74
         K23J02D KC2023 05 14.91166 15 09 58.426+33 20 58.63         20.1 GXEJ143L38
         K23J02D KC2023 05 14.91431 15 09 57.895+33 19 24.67         18.8 GXEJ143L38
         K23J02D 1C2023 05 14.91701 15 09 51.51 +33 18 14.6          18.8 GVEJ143C40
         K23J02D 1C2023 05 14.92038 15 09 50.79 +33 16 13.7          18.4 GVEJ143C40
         K23J02D 1C2023 05 14.92370 15 09 50.07 +33 14 13.9          18.9 GVEJ143C40
         K23J02D hC2023 05 14.94061715 09 51.80 +33 04 09.0          18.2 GVEJ143L01
         K23J02D hC2023 05 14.94134215 09 51.64 +33 03 43.1          18.3 GVEJ143L01
         K23J02D hC2023 05 14.94170515 09 51.58 +33 03 30.2          18.0 GVEJ143L01
         K23J02D 1C2023 05 14.94409 15 09 45.75 +33 01 58.1          18.3 GVEJ143C40
         K23J02D 1C2023 05 14.94745 15 09 45.06 +32 59 56.7          18.9 GVEJ143C40
         K23J02D 1C2023 05 14.95079 15 09 44.36 +32 57 56.0          18.7 GVEJ143C40
    
    Observer details:
    703 Catalina Sky Survey.  Observer A. Serrano.  Measurers E. J. Christensen,
        D. Fay, J. B. Fazekas, D. C. Fuls, A. R. Gibbs, A. D. Grauer, H. Groeller,
        J. K. Hogan, R. A. Kowalski, S. M. Larson, G. J. Leonard, D. Rankin, R. L.
        Seaman, A. Serrano, F. C. Shelly, K. W. Wierzchos.  0.68-m Schmidt + 10K
        CCD.
    958 Observatoire de Dax.  Observers P. Dupouy, J. B. de Vanssay.  Measurer P.
        Dupouy.  0.43-m f/2.7 Reflector + CCD.
    B72 Soerth.  Observer B. Koch.  0.36-m f/7.6 Schmidt-Cassegrain + CMO.
    C40 Kuban State University Astrophysical Observatory.  Observers A. Ivanov, A.
        Barcov, V. Ivanov, V. Lysenko, N. Yakovenko, N. Ivanova, N. Gorbunov, G.
        Kurbatov, P. Shchukin, V. Roshchupko.  Measurer A. Ivanov.  0.51-m f/8
        reflector + CCD.
    C95 SATINO Remote Observatory, Haute Provence.  Observer J. Jahn.  0.60-m
        f/3.2 Newtonian reflector + CCD.
    I52 Steward Observatory, Mt. Lemmon Station.  Observer K. W. Wierzchos.
        Measurers E. J. Christensen, D. Fay, J. B. Fazekas, D. C. Fuls, A. R.
        Gibbs, A. D. Grauer, H. Groeller, J. K. Hogan, R. A. Kowalski, S. M.
        Larson, G. J. Leonard, D. Rankin, R. L. Seaman, A. Serrano, F. C. Shelly,
        K. W. Wierzchos.  1.0-m prime focus + CCD.
    K19 PASTIS Observatory, Banon.  Observer C. Demeautis.  0.28-m f/2.2 reflector
        + CMO.
    K74 Muensterschwarzach Observatory, Schwarzach.  Observer C. Gerhard.  0.30-m
        f/3.75 reflector + CMO.
    L01 Visnjan Observatory, Tican.  Observer K. Korlevic.  1.0-m f/2.9 reflector
        + CCD.
    L38 Gartensternwarte Schafsweide, Sehlde.  Observer A. Opitz.  0.35-m f/4.6
        Newton + CCD.
    M50 Virtual Telescope Project, Manciano.  Observer G. Masi.  0.36-m  f/8.4
        Schmidt-Cassegrain + CCD.
    Z41 Irydeo Observatory, Camarma de Esteruelas.  Observer F. Calvo.  0.28-m
        f/2.2 reflector + CCD.
    Z43 Landehen.  Observer C. Ratinaud.  0.25-m f/4.7 reflector + CCD.
    
    Orbital elements:
    2023 JD2                                                 Earth MOID = 0.0367 AU
    Epoch 2023 Feb. 25.0 TT = JDT 2460000.5                 Veres                   
    M 338.05151              (2000.0)            P               Q                  
    n   0.48163887     Peri.  136.10855     -0.93737014     +0.20367980             
    a   1.6118391      Node    57.70286     -0.33077376     -0.77479864             
    e   0.3978498      Incl.   19.53002     +0.10920593     -0.59849946             
    P   2.05           H   23.75          G   0.15           U   8                  
    Residuals in seconds of arc
    230513 703  0.9-  0.2+    230514 I52  0.1-  0.3+    230514 K74  0.1+  0.1+
    230513 703  0.8+  1.4+    230514 I52  0.4+  0.1+    230514 K74  0.1+  0.0
    230513 703  0.5+  0.3-    230514 I52  0.2+  0.6+    230514 K74  0.1-  0.2+
    230513 703  1.3-  0.1+    230514 C95  0.2-  0.6-    230514 K74  0.1-  0.1+
    230513 I52  0.0   0.1-    230514 C40  0.2+  0.4-    230514 K74  0.1-  0.0
    230513 I52  0.1+  0.1+    230514 C40  0.2+  0.0     230514 K74  0.2+  0.1+
    230513 I52  0.0   0.0     230514 C40  0.2+  0.2-    230514 K74  0.0   0.2+
    230513 I52  0.1-  0.1-    230514 C40  0.1-  0.3-    230514 K74  0.2+  0.3+
    230513 B72  0.2-  0.1+    230514 C40  0.0   0.1-    230514 L38  0.2+  0.8-
    230513 B72  0.2-  0.3-    230514 C40  0.0   0.1-    230514 L38  0.3+  0.2-
    230513 B72  0.1+  0.2-    230514 C40  0.1-  0.3-    230514 C40  0.1+  0.1-
    230513 Z41  0.3-  0.1+    230514 M50  0.1+  0.0     230514 C40  0.1+  0.1+
    230513 Z41  0.2-  0.1+    230514 C40  0.0   0.0     230514 C40  0.1-  0.2-
    230513 Z41  0.4+  0.3+    230514 C95  0.0   0.0     230514 L01  0.1-  0.1+
    230513 958  0.0   0.3+    230514 M50  0.5-  0.2+    230514 L01  0.2-  0.2+
    230513 958  0.2-  0.6-    230514 C40  0.1+  0.1-    230514 L01  0.1+  0.3+
    230513 Z43  0.0   0.0     230514 K19  0.0   0.0     230514 C40  0.2-  0.2-
    230513 958  1.0+  0.2-    230514 K19  0.0   0.1+    230514 C40  0.0   0.1-
    230513 Z43  0.0   0.5+    230514 K19  0.1+  0.0     230514 C40  0.1-  0.2+
    
    Ephemeris:
    2023 JD2                 a,e,i = 1.61, 0.40, 20                  q = 0.9706
    Date    TT    R. A. (2000) Decl.     Delta      r    Elong.  Phase     V
    2023 04 14    01 12 51.0 +84 36 55   0.2358  0.9709    75.5    90.9    23.8
    ...
    2023 04 29    17 20 37.1 +85 54 08   0.1365  0.9892    78.7    93.5    22.7
    ...
    2023 05 07    15 38 19.5 +74 58 07   0.08240 1.0095    88.2    87.1    21.4
    ...
    2023 05 13    15 14 46.1 +49 42 34   0.04737 1.0290   112.1    65.4    19.5
    2023 05 14    15 12 07.4 +41 50 21   0.04323 1.0326   119.7    58.2    19.1
    2023 05 15    15 09 43.1 +32 29 44   0.04007 1.0362   128.7    49.6    18.7
    ...
    2023 05 21    14 59 15.3 -27 19 17   0.04918 1.0598   166.5    12.9    18.1
    ...
    2023 05 29    14 53 13.7 -54 28 50   0.1005  1.0954   143.1    33.8    20.4
    ...
    2023 06 13    14 59 10.2 -64 18 41   0.2146  1.1715   132.6    39.6    22.3
    
    M. P. C. Staff               (C) Copyright 2023 MPC           M.P.E.C. 2023-J143
    


    Read MPEC 2023-J142 Read MPEC 2023-J144


    MPEC number:

    Enter an MPEC number in one of the following forms:

    • 1997-B01 (the full form)
    • J97B01 (the packed version of the full form)
    • B01 (the abbreviated form)